Regional Weather Roundup
Issued by NWS

Home | Current Version | Previous Version | Graphics & Text | Print | Product List | Glossary On
Versions: 1 2 3 4 5 6 7 8 9 10 11 12 13 14 15 16 17 18 19 20 21 22 23 24 25 26 27 28 29 30 31 32 33 34 35 36 37 38 39 40 41 42 43 44 45 46 47 48 49 50
968
ASUS44 KLIX 200001
RWRLA
LOUISIANA WEATHER ROUNDUP
NATIONAL WEATHER SERVICE NEW ORLEANS LA
600 PM CST FRI DEC 19 2014

NOTE: "FAIR" INDICATES FEW OR NO CLOUDS BELOW 12,000 FEET WITH NO
      SIGNIFICANT WEATHER AND/OR OBSTRUCTIONS TO VISIBILITY.
      SKY/WX - SKY CONDITION AND SIGNIFICANT WEATHER.
      TMP - AIR TEMPERATURE.    DP   - DEWPOINT TEMPERATURE.
      RH  - RELATIVE HUMIDITY.  PRES - PRESSURE.
      HX  - HEAT INDEX.         WCI  - WIND CHILL INDEX.

*  THESE STATIONS ARE NOT NWS OR FAA STATIONS AND ARE NOT UNDER
   NWS QUALITY CONTROL.

LAZ040-048-061>063-065-066-069-200100-
SOUTHEAST LOUISIANA

CITY           SKY/WX    TMP DP  RH WIND       PRES   REMARKS
N.O. AUDUBON     N/A     53  52  97 MISG        N/A
6HR MIN TEMP:  52; 6HR MAX TEMP:  56; 6HR PCP:  0.56;

N.O. INTL ARPT CLOUDY    52  49  89 NE14      30.07R
6HR MIN TEMP:  51; 6HR MAX TEMP:  55; 6HR PCP:  0.51;

N.O. LAKEFRONT CLOUDY    53  49  86 NE20      30.07R
6HR MIN TEMP:  53; 6HR MAX TEMP:  55; 6HR PCP:  0.90;

N.O. DOWNTOWN* CLOUDY    52  46  82 NE9G17    30.06S
6HR MIN TEMP:  52; 6HR MAX TEMP:  54; 6HR PCP:  0.72;

SLIDELL        LGT RAIN  49  46  90 NE8       30.07S
6HR MIN TEMP:  49; 6HR MAX TEMP:  51; 6HR PCP:  1.05;

BATON ROUGE    RAIN      47  45  93 NE9       30.10R FOG
6HR MIN TEMP:  47; 6HR MAX TEMP:  55; 6HR PCP:  0.60;

BOOTHVILLE     CLOUDY    57  57 100 NE9       30.05R
6HR MIN TEMP:  57; 6HR MAX TEMP:  61; 6HR PCP:  0.40;

BELLE CHASSE   CLOUDY    52  51  97 NE12      30.06R
6HR MIN TEMP:  52; 6HR MAX TEMP:  54; 6HR PCP:  0.42;

BOGALUSA*      RAIN      48  45  89 NE6       30.13R
6HR MIN TEMP:  48; 6HR MAX TEMP:  51; 6HR PCP:  0.67;

GALLIANO*      NOT AVBL
NEW ROADS*     NOT AVBL
GONZALES*      NOT AVBL
HAMMOND*       NOT AVBL
HOUMA*         CLOUDY    54  54 100 NE12      30.04R
PORT FOURCHON* CLOUDY    61  59  94 NE15      30.05S

$$

LAZ041-044-053-054-200100-
SOUTHWEST LOUISIANA

CITY           SKY/WX    TMP DP  RH WIND       PRES   REMARKS
LAKE CHARLES   LGT RAIN  55  53  93 NE15      30.04S
6HR MIN TEMP:  55; 6HR MAX TEMP:  57; 6HR PCP:  0.28;

LAFAYETTE      LGT RAIN  51  50  96 NE9       30.06F
6HR MIN TEMP:  51; 6HR MAX TEMP:  58; 6HR PCP:  0.32;

PATTERSON      CLOUDY    54  52  94 NE15      30.05R
6HR MIN TEMP:  54; 6HR MAX TEMP:  55;

SALT POINT       N/A     58  54  86 VRB7      30.02R
6HR MIN TEMP:  58; 6HR MAX TEMP:  61; 6HR PCP:  0.83;

NEW IBERIA     LGT RAIN  52  50  93 NE16      30.06S
6HR MIN TEMP:  52; 6HR MAX TEMP:  58; 6HR PCP:  0.46;

CHENAULT AIRPK LGT RAIN  54  54 100 NE10G17   30.05S

$$

LAZ027-028-200100-
CENTRAL LOUISIANA

CITY           SKY/WX    TMP DP  RH WIND       PRES   REMARKS
FORT POLK      CLOUDY    49  48  97 E8        30.06S
6HR MIN TEMP:  49; 6HR MAX TEMP:  54; 6HR PCP:  0.24;

ALEXANDRIA INT LGT RAIN  48  47  96 E7        30.08S
6HR MIN TEMP:  48; 6HR MAX TEMP:  52; 6HR PCP:  0.18;

ALEXANDRIA     CLOUDY    48  46  93 E8        30.10R
6HR MIN TEMP:  48; 6HR MAX TEMP:  51; 6HR PCP:  0.19;


$$

LAZ001-002-200100-
NORTHWEST LOUISIANA

CITY           SKY/WX    TMP DP  RH WIND       PRES   REMARKS
SHREVEPORT     CLOUDY    48  45  89 N9        30.15R
6HR MIN TEMP:  47; 6HR MAX TEMP:  51; 6HR PCP:  0.02;

BARKSDALE AFB  NOT AVBL
DTN SHREVEPORT CLOUDY    47  43  86 N6        30.16R
6HR MIN TEMP:  46; 6HR MAX TEMP:  49; 6HR PCP: TRACE;


$$

LAZ014-016-200100-
NORTHEAST LOUISIANA

CITY           SKY/WX    TMP DP  RH WIND       PRES   REMARKS
MONROE         CLOUDY    47  45  93 N8        30.17R
6HR MIN TEMP:  46; 6HR MAX TEMP:  47; 6HR PCP:  0.17;

TALLULAH       LGT RAIN  47  44  90 E8        30.13F
6HR MIN TEMP:  46; 6HR MAX TEMP:  47; 6HR PCP:  0.16;


$$




USA.gov is the U.S. government's official web portal to all federal, state and local government web resources and services.